Showing default

EOS-8, 60454

Orbit data source: Space-Track

EOS-8, 60454 is a payload satellite owned by ISRO (IN) in LEO that was launched on Fri, 16 Aug 2024 UTC via an SSLV launch vehicle from the Sirharikota (SRI). Payload-class satellites include a variety of spacecraft equipped with specific instruments for various scientific and technological missions. These include communications satellites like Starlink; space stations such as the ISS; scientific satellites like the Hubble; Earth observation satellites from companies like Planet Labs, Umbra, and HawkEye 360; GPS; miniature CubeSats for education and research; and military/defense satellites.

Loading next visibility...
Identifier
60454, 2024-147A
Orbit
LEO
Last TLE update
14 hours ago
Origin
Manufacturer
ISRO SAC/Banga
Mission
Operational Civil Imaging
Bus & Motor
IMS-1, Unknown motor
Mass
176 kg wet, ~176 kg dry
Launch date (UTC)
2024-08-16 (11 months ago)
Launch vehicle
SSLV
Launch site
Sirharikota (SRI)
Object type
Payload
Rocket body
Debris
Shape & HBR
Box + 2 Pan, 3 m
Radar Cross Section
0.935 m², Large (>1 m²)

Expand to show TLE details & history

TLE from 14 hours ago
0 EOS-8
1 60454U 24147A   25186.17666764  .00027241  00000-0  62890-3 0  9996
2 60454  37.3807  81.8530 0003993 279.5930  80.4381 15.41710488 49425
Epoch: 2025-07-05T04:14Z
TLE epoch observation values (Epoch: 2025-07-05T04:14:24.084Z)
Latitude
-0.00003°
Longitude
94.83415°
Altitude
439.762 km
Speed
7.651 km/s
True Right ascension
05h 27m 24s
True Declination
0° 00' 00"
Sunlit
Object was in daylight at epoch
Visualization orbit readout
Latitude
-23.24284°
Longitude
57.23419°
Altitude
443.647 km
Speed
7.648 km/s
Apparent Right ascension
23h 33m 18s
Apparent Declination
-56° 19' 28"
Sunlit
Object is in daylight
Visualization observer readout
Local Sidereal Time
05:58:45
Azimuth
222.621° SW
Elevation
-35.529°
Doppler factor
1
Orbital elements
Apogee altitude
446.678 km
Perigee altitude
441.23 km
Semi-major axis
6,822.091 km
Eccentricity
0.0004
Inclination
37.3807°
RAAN
81.853°
Arg. of periapsis
279.593°
True anomaly
Unknown
Mean anomaly
80.4381°
Eccentric anomaly
Unknown
Mean motion
3.85183 °/min
Orbital period
93.46 mins
BSTAR
0.0006289
Loading maneuver chart data...
Loading SW <> Apogee altitude chart data...
Loading historical data...
Loading historical data...
Loading historical data...
Loading historical data...
Loading historical data...
Loading historical data...
Loading historical data...
Other satellites on launch #147 in the year 2024 (2024-08-16 UTC)

EOS-8 Visibility forecast

Observer location: undefined°, undefined°

Span
Click to sort rows by Start time (UTC) header in descending order
Start Az.
Max El. time (UTC)
Max El. Az.
Max El.
End time (UTC)
End Az.
4 mins2025-07-05 21:37:17.393Z216.955° SW2025-07-05 21:39:17.393Z149.091° SSE30.208°2025-07-05 21:41:17.393Z103.674° ESE
5 mins2025-07-05 23:15:17.393Z250.305° W2025-07-05 23:17:17.393Z165.3° S39.269°2025-07-05 23:20:17.393Z103.235° ESE
5 mins2025-07-06 00:53:17.393Z250.359° W2025-07-06 00:55:17.393Z195.362° SSW28.754°2025-07-06 00:58:17.393Z132.129° SE
|